Terug naar catalogus

STARLINK-5106

ActiefCommunicatieVLEO
NORAD 54823·PAYLOAD·🇺🇸 United States

Gelanceerd Dec 28, 2022 vanaf Cape Canaveral Space Force Station

Loading…

Volgende Passages (komende 24 uur)

TLE

VersSource: CelesTrak SupGP

Epoch: Sep 14, 2026, 21:42 UTC

1 54823C 22177D   26257.90465278 -.00032134  00000+0 -11642-2 0  2571
2 54823  42.9985 147.3095 0001574 243.2547 104.8120 15.27583932    16

Volg STARLINK-5106 in realtime met AllMySat

Download on the App Store